TimeCDT,TemperatureF,Dew PointF,Humidity,Sea Level PressureIn,VisibilityMPH,Wind Direction,Wind SpeedMPH,Gust SpeedMPH,PrecipitationIn,Events,Conditions,WindDirDegrees,DateUTC
12:53 AM,43.0,28.9,58,30.14,10.0,WSW,5.8,-,N/A,,Clear,240,2012-09-24 05:53:00
1:53 AM,41.0,28.9,62,30.14,10.0,SW,3.5,-,N/A,,Clear,220,2012-09-24 06:53:00
2:53 AM,39.9,28.9,65,30.12,10.0,SW,3.5,-,N/A,,Clear,230,2012-09-24 07:53:00
3:53 AM,39.0,28.9,67,30.10,10.0,SW,5.8,-,N/A,,Clear,220,2012-09-24 08:53:00
4:53 AM,39.0,28.0,65,30.08,10.0,SW,5.8,-,N/A,,Clear,220,2012-09-24 09:53:00
5:53 AM,39.0,28.0,65,30.06,10.0,SW,5.8,-,N/A,,Clear,220,2012-09-24 10:53:00
6:53 AM,39.9,28.0,63,30.03,10.0,SW,8.1,-,N/A,,Clear,220,2012-09-24 11:53:00
7:53 AM,43.0,28.0,56,30.00,10.0,SSW,9.2,-,N/A,,Clear,210,2012-09-24 12:53:00
8:53 AM,48.0,30.0,50,29.97,10.0,SSW,9.2,-,N/A,,Clear,210,2012-09-24 13:53:00
9:53 AM,55.0,32.0,42,29.95,10.0,WSW,13.8,19.6,N/A,,Clear,240,2012-09-24 14:53:00
10:53 AM,62.1,34.0,35,29.92,10.0,WSW,11.5,-,N/A,,Clear,250,2012-09-24 15:53:00
11:53 AM,68.0,35.1,30,29.89,10.0,West,13.8,24.2,N/A,,Clear,270,2012-09-24 16:53:00
12:53 PM,72.0,36.0,27,29.86,10.0,WNW,12.7,-,N/A,,Clear,290,2012-09-24 17:53:00
1:53 PM,75.0,34.0,22,29.83,10.0,West,17.3,25.3,N/A,,Clear,270,2012-09-24 18:53:00
2:53 PM,75.9,34.0,22,29.79,10.0,West,15.0,25.3,N/A,,Clear,260,2012-09-24 19:53:00
3:53 PM,78.1,34.0,20,29.77,10.0,West,12.7,19.6,N/A,,Clear,260,2012-09-24 20:53:00
4:53 PM,78.1,32.0,19,29.75,10.0,West,12.7,20.7,N/A,,Clear,260,2012-09-24 21:53:00
5:53 PM,75.9,34.0,22,29.75,10.0,West,6.9,-,N/A,,Clear,260,2012-09-24 22:53:00
6:53 PM,72.0,34.0,25,29.74,10.0,West,4.6,-,N/A,,Clear,260,2012-09-24 23:53:00
7:53 PM,68.0,34.0,28,29.75,10.0,WSW,5.8,-,N/A,,Clear,240,2012-09-25 00:53:00
8:53 PM,64.0,36.0,35,29.75,10.0,SW,5.8,-,N/A,,Clear,220,2012-09-25 01:53:00
9:53 PM,64.0,35.1,34,29.75,10.0,WSW,5.8,-,N/A,,Clear,240,2012-09-25 02:53:00
10:53 PM,62.1,35.1,37,29.76,10.0,WSW,5.8,-,N/A,,Clear,250,2012-09-25 03:53:00
11:53 PM,60.1,37.9,44,29.75,10.0,WNW,5.8,-,N/A,,Clear,290,2012-09-25 04:53:00